Location: Coupvray
(48.8929°N, 2.7967°E)
Time: 21:10:16
(UTC+00:00)

Cosmos 724 - Pass Details

Date: 29 October 2020
Orbit: 851 x 943 km, 65.6° (Epoch: 01 December)

Event Time Altitude Azimuth Distance (km) Brightness Sun altitude
Exits shadow 05:06:46 - 325° (NW) 3,064 6.7 -14.4°
Reaches altitude 10° 05:08:15 10° 333° (NNW) 2,616 6.4 -14.2°
Maximum altitude 05:13:18 26° 29° (NNE) 1,735 6.1 -13.3°
Drops below altitude 10° 05:18:25 10° 85° (E) 2,651 8.2 -12.5°
Sets 05:21:25 0° 98° (E) 3,600 9.7 -12.0°
